Location: Altenst�hlen
(53.5567°N, 8.9425°E)
Time: 15:34:44
(UTC+00:00)

STARLINK-54 - Pass Details

Date: 23 October 2019
Orbit: 548 x 551 km, 53.0° (Epoch: 20 November)

Event Time Altitude Azimuth Distance (km) Brightness Sun altitude
Rises 17:21:02 0° 273° (W) 2,719 9.3 -11.1°
Reaches altitude 10° 17:23:16 10° 272° (W) 1,825 7.8 -11.4°
Maximum altitude 17:27:25 83° 186° (S) 559 3.6 -12.0°
Enters shadow 17:30:21 19° 99° (E) 1,349 5.0 -12.4°
